Albany, GA

10:04 PM EDT on June 25, 2017 (GMT -0400)
Southwest Georgia Regional

Weather History for KABY - November, 2014

Change the Weather History Date:

Monday, November 24, 2014

  Actual Average Record
Temperature  
Mean Temperature 70 °F 56 °F  
Max Temperature 77 °F 68 °F 83 °F (1978)
Min Temperature 62 °F 44 °F 20 °F (1970)
Degree Days  
Heating Degree Days 0 9  
Month to date heating degree days 275 156  
Since 1 July heating degree days 314 206  
Cooling Degree Days 5 1  
Month to date cooling degree days 10 30  
Year to date cooling degree days 2490 2533  
Growing Degree Days 19 (Base 50)    
Moisture  
Dew Point 66 °F    
Average Humidity 83    
Maximum Humidity 97    
Minimum Humidity 69    
Precipitation  
Precipitation 0.41 in 0.12 in 2.57 in (2004)
Month to date precipitation 2.29  
Year to date precipitation 43.92  
Sea Level Pressure  
Sea Level Pressure 29.86 in    
Wind  
Wind Speed 7 mph (SSW)    
Max Wind Speed 18 mph    
Max Gust Speed 35 mph    
Visibility 8 miles    
Events Rain , Thunderstorm    
T = Trace of Precipitation, MM = Missing Value Source: NWS Daily Summary

Daily Weather History Graph

Daily Weather History Graph

Search for Another Location

Airport or City:

Trip Planner

Search our weather history database for the weather conditions in past years. The results will help you decide how hot, cold, wet, or windy it might be!

Date:

Astronomy

Nov. 24, 2014 Rise Set
Actual Time 7:12 AM EST 5:34 PM EST
Civil Twilight 6:46 AM EST 6:00 PM EST
Nautical Twilight 6:16 AM EST 6:30 PM EST
Astronomical Twilight 5:47 AM EST 6:59 PM EST
Moon 9:05 AM EST (11/24) 7:53 PM EST (11/24)
Length of Visible Light 11h 14m
Length of Day
10h 21m
Waxing Crescent, 6% of the Moon is Illuminated
Nov 24
Waxing Crescent
Nov 29
First Quarter
Dec 6
Full
Dec 14
Last Quarter
Dec 21
New

Hourly Weather History & Observations

Time (EST) Temp. Dew Point Humidity Pressure Visibility Wind Dir Wind Speed Gust Speed Precip Events Conditions
12:48 AM 66.2 °F 64.4 °F 94% 29.83 in 6.0 mi SSW 8.1 mph - N/A   Overcast
12:53 AM 66.0 °F 64.0 °F 93% 29.83 in 7.0 mi South 9.2 mph - N/A   Overcast
1:53 AM 66.0 °F 64.0 °F 93% 29.83 in 10.0 mi SSW 8.1 mph - N/A   Overcast
2:04 AM 66.2 °F 64.4 °F 94% 29.82 in 10.0 mi South 9.2 mph - N/A   Overcast
2:31 AM 66.2 °F 64.4 °F 94% 29.83 in 10.0 mi SSW 5.8 mph - N/A   Overcast
2:53 AM 66.0 °F 64.0 °F 93% 29.82 in 10.0 mi SW 4.6 mph - N/A   Overcast
3:09 AM 66.2 °F 64.4 °F 94% 29.83 in 10.0 mi SSW 8.1 mph - N/A   Overcast
3:53 AM 66.0 °F 64.0 °F 93% 29.81 in 10.0 mi SSW 6.9 mph - N/A   Overcast
4:53 AM 68.0 °F 66.0 °F 93% 29.81 in 10.0 mi SSW 9.2 mph - N/A   Overcast
5:53 AM 68.0 °F 66.0 °F 93% 29.81 in 4.0 mi SSW 3.5 mph - 0.02 in   Overcast
6:00 AM 68.0 °F 66.2 °F 94% 29.81 in 6.0 mi SW 4.6 mph - N/A Thunderstorm Overcast
6:08 AM 68.0 °F 66.2 °F 94% 29.80 in 7.0 mi South 3.5 mph - 0.01 in Thunderstorm Thunderstorm
6:32 AM 69.8 °F 66.2 °F 88% 29.82 in 3.0 mi WSW 11.5 mph 17.3 mph 0.04 in   Overcast
6:40 AM 69.8 °F 66.2 °F 88% 29.82 in 2.5 mi WSW 12.7 mph - 0.09 in   Overcast
6:46 AM 69.8 °F 66.2 °F 88% 29.82 in 1.2 mi SW 9.2 mph 21.9 mph 0.18 in Thunderstorm Overcast
6:53 AM 69.1 °F 66.9 °F 93% 29.82 in 2.0 mi SSW 12.7 mph - 0.21 in Thunderstorm Overcast
7:06 AM 68.0 °F 66.2 °F 94% 29.83 in 3.0 mi SW 6.9 mph - 0.03 in   Overcast
7:53 AM 68.0 °F 66.0 °F 93% 29.85 in 9.0 mi WSW 6.9 mph - 0.04 in   Overcast
7:56 AM 68.0 °F 66.2 °F 94% 29.86 in 8.0 mi WSW 6.9 mph - N/A   Overcast
8:08 AM 68.0 °F 66.2 °F 94% 29.86 in 2.5 mi SW 4.6 mph - 0.01 in   Overcast
8:16 AM 68.0 °F 66.2 °F 94% 29.87 in 7.0 mi SW 6.9 mph - 0.01 in   Overcast
8:36 AM 69.8 °F 66.2 °F 88% 29.87 in 7.0 mi SSW 8.1 mph - 0.01 in   Overcast
8:53 AM 69.1 °F 68.0 °F 96% 29.88 in 9.0 mi SW 6.9 mph - 0.01 in   Overcast
9:53 AM 70.0 °F 68.0 °F 93% 29.87 in 10.0 mi SW 4.6 mph - N/A   Overcast
10:53 AM 72.0 °F 69.1 °F 91% 29.89 in 10.0 mi SSW 9.2 mph - N/A   Overcast
11:53 AM 73.0 °F 69.1 °F 87% 29.88 in 10.0 mi SW 6.9 mph - N/A   Overcast
12:53 PM 75.0 °F 66.9 °F 76% 29.86 in 10.0 mi SSW 8.1 mph - N/A   Overcast
1:53 PM 73.9 °F 66.9 °F 79% 29.84 in 10.0 mi SW 6.9 mph - N/A   Overcast
2:00 PM 75.2 °F 66.2 °F 73% 29.84 in 10.0 mi SW 9.2 mph - N/A   Mostly Cloudy
2:53 PM 75.0 °F 64.9 °F 71% 29.84 in 10.0 mi SSW 12.7 mph - N/A   Partly Cloudy
3:19 PM 73.4 °F 64.4 °F 73% 29.87 in 10.0 mi SSW 9.2 mph - N/A Thunderstorm Mostly Cloudy
3:53 PM 72.0 °F 66.9 °F 84% 29.85 in 10.0 mi SW 3.5 mph - 0.01 in Thunderstorm Mostly Cloudy
4:53 PM 70.0 °F 66.9 °F 90% 29.86 in 6.0 mi South 5.8 mph - 0.03 in Rain , Thunderstorm Light Rain
5:53 PM 69.1 °F 66.9 °F 93% 29.90 in 7.0 mi South 6.9 mph - 0.00 in Rain , Thunderstorm Light Rain
6:01 PM 69.8 °F 66.2 °F 88% 29.92 in 7.0 mi SSW 8.1 mph - 0.00 in   Mostly Cloudy
6:53 PM 68.0 °F 64.9 °F 90% 29.88 in 8.0 mi Calm Calm - 0.02 in   Scattered Clouds
7:28 PM 68.0 °F 66.2 °F 94% 29.96 in 7.0 mi South 8.1 mph - 0.01 in   Mostly Cloudy
7:53 PM 68.0 °F 66.0 °F 93% 29.94 in 4.0 mi SSW 5.8 mph - 0.05 in   Mostly Cloudy
8:53 PM 66.9 °F 64.9 °F 93% 29.96 in 6.0 mi SSW 9.2 mph - 0.01 in   Mostly Cloudy
9:53 PM 64.0 °F 62.1 °F 93% 29.98 in 10.0 mi SSW 6.9 mph - N/A   Mostly Cloudy
10:53 PM 63.0 °F 61.0 °F 93% 30.01 in 9.0 mi SSW 8.1 mph - 0.01 in   Mostly Cloudy
11:53 PM 62.1 °F 60.1 °F 93% 29.99 in 10.0 mi SSE 4.6 mph - N/A   Overcast